Location: Baix
(44.7118°N, 4.7648°E)
Time: 10:44:06
(UTC+00:00)

Vanguard 2 Rocket - Pass Details

Date: 27 November 2020
Orbit: 554 x 3325 km, 32.9° (Epoch: 21 January)

Event Time Altitude Azimuth Distance (km) Brightness Sun altitude
Rises 12:52:27 0° 273° (W) 6,821 11.6 21.3°
Reaches altitude 10° 12:58:05 10° 266° (W) 5,428 11.3 20.9°
Maximum altitude 13:10:24 33° 212° (SSW) 2,880 11.5 20.1°
Drops below altitude 10° 13:18:15 10° 152° (SSE) 3,416 10.4 19.4°
Sets 13:20:56 0° 142° (SE) 4,067 10.6 19.2°
